Time,TemperatureF,DewpointF,PressureIn,WindDirection,WindDirectionDegrees,WindSpeedMPH,WindSpeedGustMPH,Humidity,HourlyPrecipIn,Conditions,Clouds,dailyrainin,SoftwareType,DateUTC
2013-06-17 00:01:00,60.9,52.6,29.88,SW,225,0.0,0.0,74,0.00,,,0.00,WUHU216HW,2013-06-17 05:01:00,
2013-06-17 00:06:00,60.9,52.6,29.88,SSW,203,0.0,0.0,74,0.00,,,0.00,WUHU216HW,2013-06-17 05:06:00,
2013-06-17 00:11:00,60.9,52.6,29.88,SSW,203,0.0,0.0,74,0.00,,,0.00,WUHU216HW,2013-06-17 05:11:00,
2013-06-17 00:16:00,60.9,52.6,29.88,SW,225,0.0,0.0,74,0.00,,,0.00,WUHU216HW,2013-06-17 05:16:00,
2013-06-17 00:21:00,60.6,51.9,29.88,South,180,0.0,0.0,73,0.00,,,0.00,WUHU216HW,2013-06-17 05:21:00,
2013-06-17 00:26:00,60.4,52.1,29.88,South,180,0.0,0.0,73,0.00,,,0.00,WUHU216HW,2013-06-17 05:26:00,
2013-06-17 00:31:00,60.4,52.1,29.88,SW,225,0.0,0.0,74,0.00,,,0.00,WUHU216HW,2013-06-17 05:31:00,
2013-06-17 00:36:00,60.4,52.1,29.88,South,180,0.0,0.0,74,0.00,,,0.00,WUHU216HW,2013-06-17 05:36:00,
2013-06-17 00:41:00,60.4,52.1,29.88,SW,225,0.0,0.0,74,0.00,,,0.00,WUHU216HW,2013-06-17 05:41:00,
2013-06-17 00:46:00,60.4,52.5,29.88,SW,225,0.0,0.0,75,0.00,,,0.00,WUHU216HW,2013-06-17 05:46:00,
2013-06-17 00:51:00,60.4,52.5,29.88,SSW,203,0.0,0.0,75,0.00,,,0.00,WUHU216HW,2013-06-17 05:51:00,
2013-06-17 00:56:00,60.4,52.7,29.88,South,180,0.0,0.0,75,0.00,,,0.00,WUHU216HW,2013-06-17 05:56:00,
2013-06-17 01:01:00,60.6,52.7,29.88,South,180,0.0,0.0,75,0.00,,,0.00,WUHU216HW,2013-06-17 06:01:00,
2013-06-17 01:06:00,60.6,52.7,29.88,SSW,203,0.0,0.0,75,0.00,,,0.00,WUHU216HW,2013-06-17 06:06:00,
2013-06-17 01:11:00,60.6,52.7,29.88,SSW,203,0.0,0.0,75,0.00,,,0.00,WUHU216HW,2013-06-17 06:11:00,
2013-06-17 01:16:00,60.6,52.7,29.88,SSW,203,0.0,0.0,75,0.00,,,0.00,WUHU216HW,2013-06-17 06:16:00,
2013-06-17 01:21:00,60.4,52.5,29.87,SSW,203,0.0,0.0,75,0.00,,,0.00,WUHU216HW,2013-06-17 06:21:00,
2013-06-17 01:26:00,60.0,52.1,29.87,SSW,203,0.0,0.0,75,0.00,,,0.00,WUHU216HW,2013-06-17 06:26:00,
2013-06-17 01:31:00,59.7,51.8,29.87,SSW,203,0.0,0.0,75,0.00,,,0.00,WUHU216HW,2013-06-17 06:31:00,
2013-06-17 01:36:00,59.7,51.8,29.87,SSW,203,0.0,0.0,75,0.00,,,0.00,WUHU216HW,2013-06-17 06:36:00,
2013-06-17 01:41:00,59.7,52.1,29.87,South,180,0.0,0.0,76,0.00,,,0.00,WUHU216HW,2013-06-17 06:41:00,
2013-06-17 01:46:00,59.7,52.1,29.87,SW,225,0.0,0.0,76,0.00,,,0.00,WUHU216HW,2013-06-17 06:46:00,
2013-06-17 01:51:00,59.7,52.1,29.87,SW,225,0.0,0.0,76,0.00,,,0.00,WUHU216HW,2013-06-17 06:51:00,
2013-06-17 01:56:00,59.5,51.9,29.87,South,180,0.0,0.0,76,0.00,,,0.00,WUHU216HW,2013-06-17 06:56:00,
2013-06-17 02:01:00,59.5,51.9,29.87,South,180,0.0,0.0,76,0.00,,,0.00,WUHU216HW,2013-06-17 07:01:00,
2013-06-17 02:06:00,59.5,51.9,29.87,SSE,158,0.0,0.0,76,0.00,,,0.00,WUHU216HW,2013-06-17 07:06:00,
2013-06-17 02:11:00,59.5,51.9,29.87,SSW,203,0.0,0.0,76,0.00,,,0.00,WUHU216HW,2013-06-17 07:11:00,
2013-06-17 02:16:00,59.7,52.5,29.87,SW,225,0.0,0.0,77,0.00,,,0.00,WUHU216HW,2013-06-17 07:16:00,
2013-06-17 02:21:00,60.0,52.5,29.88,SSW,203,0.0,0.0,76,0.00,,,0.00,WUHU216HW,2013-06-17 07:21:00,
2013-06-17 02:26:00,60.4,52.8,29.88,SW,225,0.0,0.0,76,0.00,,,0.00,WUHU216HW,2013-06-17 07:26:00,
2013-06-17 02:31:00,60.6,53.0,29.88,West,270,0.0,0.0,76,0.00,,,0.00,WUHU216HW,2013-06-17 07:31:00,
2013-06-17 02:36:00,60.6,53.0,29.88,WSW,248,0.0,0.0,76,0.00,,,0.00,WUHU216HW,2013-06-17 07:36:00,
2013-06-17 02:41:00,60.6,53.0,29.88,South,180,0.0,0.0,76,0.00,,,0.00,WUHU216HW,2013-06-17 07:41:00,
2013-06-17 02:46:00,60.6,53.0,29.88,West,270,0.0,0.0,76,0.00,,,0.00,WUHU216HW,2013-06-17 07:46:00,
2013-06-17 02:51:00,60.6,53.0,29.88,SSW,203,0.0,0.0,76,0.00,,,0.00,WUHU216HW,2013-06-17 07:51:00,
2013-06-17 02:56:00,60.9,53.4,29.88,WNW,293,0.0,0.0,76,0.00,,,0.00,WUHU216HW,2013-06-17 07:56:00,
2013-06-17 03:01:00,61.1,53.5,29.88,West,270,0.0,0.0,76,0.00,,,0.00,WUHU216HW,2013-06-17 08:01:00,
2013-06-17 03:06:00,61.3,53.7,29.88,SW,225,0.0,0.0,76,0.00,,,0.00,WUHU216HW,2013-06-17 08:06:00,
2013-06-17 03:11:00,61.5,53.5,29.88,WSW,248,0.0,0.0,75,0.00,,,0.00,WUHU216HW,2013-06-17 08:11:00,
2013-06-17 03:16:00,61.5,53.5,29.88,West,270,0.0,0.0,75,0.00,,,0.00,WUHU216HW,2013-06-17 08:16:00,
2013-06-17 03:21:00,61.5,53.5,29.88,West,270,0.0,0.0,75,0.00,,,0.00,WUHU216HW,2013-06-17 08:21:00,
2013-06-17 03:26:00,61.3,53.3,29.88,WNW,293,0.0,0.0,75,0.00,,,0.00,WUHU216HW,2013-06-17 08:26:00,
2013-06-17 03:31:00,61.5,53.5,29.88,West,270,0.0,0.0,75,0.00,,,0.00,WUHU216HW,2013-06-17 08:31:00,
2013-06-17 03:36:00,61.3,53.3,29.88,West,270,0.0,0.0,75,0.00,,,0.00,WUHU216HW,2013-06-17 08:36:00,
2013-06-17 03:41:00,61.3,53.3,29.88,WNW,293,0.0,0.0,75,0.00,,,0.00,WUHU216HW,2013-06-17 08:41:00,
2013-06-17 03:46:00,61.1,53.3,29.88,West,270,0.0,0.0,75,0.00,,,0.00,WUHU216HW,2013-06-17 08:46:00,
2013-06-17 03:51:00,60.9,53.0,29.88,West,270,0.0,0.0,75,0.00,,,0.00,WUHU216HW,2013-06-17 08:51:00,
2013-06-17 03:56:00,60.6,52.7,29.88,West,270,0.0,0.0,75,0.00,,,0.00,WUHU216HW,2013-06-17 08:56:00,
2013-06-17 04:01:00,60.0,52.1,29.88,WSW,248,0.0,0.0,75,0.00,,,0.00,WUHU216HW,2013-06-17 09:01:00,
2013-06-17 04:06:00,59.9,51.9,29.87,WSW,248,0.0,0.0,75,0.00,,,0.00,WUHU216HW,2013-06-17 09:06:00,
2013-06-17 04:11:00,59.7,51.8,29.88,WSW,248,0.0,0.0,75,0.00,,,0.00,WUHU216HW,2013-06-17 09:11:00,
2013-06-17 04:16:00,59.7,51.8,29.88,WSW,248,0.0,0.0,75,0.00,,,0.00,WUHU216HW,2013-06-17 09:16:00,
2013-06-17 04:21:00,59.7,52.1,29.88,West,270,0.0,0.0,76,0.00,,,0.00,WUHU216HW,2013-06-17 09:21:00,
2013-06-17 04:26:00,59.7,52.1,29.88,West,270,0.0,0.0,76,0.00,,,0.00,WUHU216HW,2013-06-17 09:26:00,
2013-06-17 04:31:00,59.3,51.9,29.88,West,270,0.0,0.0,76,0.00,,,0.00,WUHU216HW,2013-06-17 09:31:00,
2013-06-17 04:36:00,59.0,51.4,29.88,WSW,248,0.0,0.0,76,0.00,,,0.00,WUHU216HW,2013-06-17 09:36:00,
2013-06-17 04:41:00,58.8,51.6,29.89,West,270,0.0,0.0,77,0.00,,,0.00,WUHU216HW,2013-06-17 09:41:00,
2013-06-17 04:46:00,58.8,51.6,29.89,West,270,0.0,0.0,77,0.00,,,0.00,WUHU216HW,2013-06-17 09:46:00,
2013-06-17 04:51:00,58.8,51.9,29.88,WNW,293,0.0,0.0,78,0.00,,,0.00,WUHU216HW,2013-06-17 09:51:00,
2013-06-17 04:56:00,58.8,52.3,29.89,WNW,293,0.0,0.0,79,0.00,,,0.00,WUHU216HW,2013-06-17 09:56:00,
2013-06-17 05:01:00,58.8,52.3,29.88,West,270,0.0,0.0,79,0.00,,,0.00,WUHU216HW,2013-06-17 10:01:00,
2013-06-17 05:06:00,58.8,52.7,29.88,WNW,293,0.0,0.0,80,0.00,,,0.00,WUHU216HW,2013-06-17 10:06:00,
2013-06-17 05:10:00,58.8,52.7,29.88,WNW,293,0.0,0.0,80,0.00,,,0.00,WUHU216HW,2013-06-17 10:10:00,
2013-06-17 05:15:00,59.0,52.8,29.88,WNW,293,0.0,0.0,80,0.00,,,0.00,WUHU216HW,2013-06-17 10:15:00,
2013-06-17 05:20:00,59.0,52.8,29.88,WNW,293,0.0,0.0,80,0.00,,,0.00,WUHU216HW,2013-06-17 10:20:00,
2013-06-17 05:25:00,58.8,52.7,29.88,WNW,293,0.0,0.0,80,0.00,,,0.00,WUHU216HW,2013-06-17 10:25:00,
2013-06-17 05:30:00,58.8,52.7,29.89,WNW,293,0.0,0.0,80,0.00,,,0.00,WUHU216HW,2013-06-17 10:30:00,
2013-06-17 05:35:00,58.6,52.1,29.89,WNW,293,0.0,0.0,79,0.00,,,0.00,WUHU216HW,2013-06-17 10:35:00,
2013-06-17 05:40:00,58.2,51.8,29.89,WNW,293,0.0,0.0,79,0.00,,,0.00,WUHU216HW,2013-06-17 10:40:00,
2013-06-17 05:45:00,58.2,52.1,29.89,WNW,293,0.0,0.0,80,0.00,,,0.00,WUHU216HW,2013-06-17 10:45:00,
2013-06-17 05:50:00,57.9,51.8,29.89,SE,135,0.0,0.0,80,0.00,,,0.00,WUHU216HW,2013-06-17 10:50:00,
2013-06-17 05:55:00,57.7,51.6,29.89,SE,135,0.0,0.0,80,0.00,,,0.00,WUHU216HW,2013-06-17 10:55:00,
2013-06-17 06:00:00,57.0,50.9,29.89,SE,135,0.0,0.0,80,0.00,,,0.00,WUHU216HW,2013-06-17 11:00:00,
2013-06-17 06:05:00,56.8,50.7,29.89,SE,135,0.0,0.0,80,0.00,,,0.00,WUHU216HW,2013-06-17 11:05:00,
2013-06-17 06:10:00,56.8,50.7,29.89,SE,135,0.0,0.0,80,0.00,,,0.00,WUHU216HW,2013-06-17 11:10:00,
2013-06-17 06:15:00,56.8,51.3,29.89,West,270,0.0,0.0,82,0.00,,,0.00,WUHU216HW,2013-06-17 11:15:00,
2013-06-17 06:20:00,57.3,51.9,29.89,WNW,293,0.0,0.0,82,0.00,,,0.00,WUHU216HW,2013-06-17 11:20:00,
2013-06-17 06:25:00,57.7,52.5,29.89,West,270,0.0,0.0,83,0.00,,,0.00,WUHU216HW,2013-06-17 11:25:00,
2013-06-17 06:30:00,58.6,53.1,29.89,WNW,293,0.0,0.0,83,0.00,,,0.00,WUHU216HW,2013-06-17 11:30:00,
2013-06-17 06:35:00,58.8,53.6,29.89,WNW,293,0.0,0.0,83,0.00,,,0.00,WUHU216HW,2013-06-17 11:35:00,
2013-06-17 06:40:00,59.7,54.8,29.89,WNW,293,0.0,0.0,84,0.00,,,0.00,WUHU216HW,2013-06-17 11:40:00,
2013-06-17 06:45:00,60.4,55.2,29.90,WNW,293,0.0,0.0,83,0.00,,,0.00,WUHU216HW,2013-06-17 11:45:00,
2013-06-17 06:50:00,60.9,55.8,29.90,WNW,293,0.0,0.0,83,0.00,,,0.00,WUHU216HW,2013-06-17 11:50:00,
2013-06-17 06:55:00,61.3,55.8,29.91,WNW,293,0.0,0.0,82,0.00,,,0.00,WUHU216HW,2013-06-17 11:55:00,
2013-06-17 07:00:00,61.8,56.3,29.91,WNW,293,0.0,0.0,82,0.00,,,0.00,WUHU216HW,2013-06-17 12:00:00,
2013-06-17 07:05:00,62.6,56.9,29.91,WNW,293,0.0,0.0,82,0.00,,,0.00,WUHU216HW,2013-06-17 12:05:00,
2013-06-17 07:10:00,64.5,59.2,29.91,WNW,293,0.0,0.0,83,0.00,,,0.00,WUHU216HW,2013-06-17 12:10:00,
2013-06-17 07:15:00,68.1,61.8,29.92,SW,225,0.0,0.0,80,0.00,,,0.00,WUHU216HW,2013-06-17 12:15:00,
2013-06-17 07:20:00,70.5,62.5,29.92,SSW,203,0.0,0.0,76,0.00,,,0.00,WUHU216HW,2013-06-17 12:20:00,
2013-06-17 07:25:00,72.6,63.1,29.92,SW,225,0.0,0.0,72,0.00,,,0.00,WUHU216HW,2013-06-17 12:25:00,
2013-06-17 07:30:00,74.6,62.7,29.92,WNW,293,0.0,0.0,68,0.00,,,0.00,WUHU216HW,2013-06-17 12:30:00,
2013-06-17 07:35:00,76.4,63.3,29.92,WNW,293,0.0,0.0,64,0.00,,,0.00,WUHU216HW,2013-06-17 12:35:00,
2013-06-17 07:40:00,77.5,63.4,29.92,NW,315,0.0,0.0,62,0.00,,,0.00,WUHU216HW,2013-06-17 12:40:00,
2013-06-17 07:45:00,78.4,63.9,29.92,SSW,203,0.0,0.0,61,0.00,,,0.00,WUHU216HW,2013-06-17 12:45:00,
2013-06-17 07:50:00,79.8,64.3,29.92,SSW,203,0.0,0.0,59,0.00,,,0.00,WUHU216HW,2013-06-17 12:50:00,
2013-06-17 07:55:00,80.6,64.4,29.93,SSW,203,0.0,0.0,58,0.00,,,0.00,WUHU216HW,2013-06-17 12:55:00,
2013-06-17 08:00:00,81.6,64.1,29.92,WNW,293,0.0,0.0,55,0.00,,,0.00,WUHU216HW,2013-06-17 13:00:00,
2013-06-17 08:05:00,82.2,63.2,29.92,WNW,293,0.0,0.0,53,0.00,,,0.00,WUHU216HW,2013-06-17 13:05:00,
2013-06-17 08:10:00,81.6,62.2,29.93,NW,315,0.0,0.0,52,0.00,,,0.00,WUHU216HW,2013-06-17 13:10:00,
2013-06-17 08:15:00,80.7,61.4,29.93,WNW,293,0.0,0.0,52,0.00,,,0.00,WUHU216HW,2013-06-17 13:15:00,
2013-06-17 08:20:00,80.0,61.3,29.93,West,270,0.0,0.0,53,0.00,,,0.00,WUHU216HW,2013-06-17 13:20:00,
2013-06-17 08:25:00,79.8,62.7,29.93,West,270,0.0,0.0,56,0.00,,,0.00,WUHU216HW,2013-06-17 13:25:00,
2013-06-17 08:30:00,81.3,64.0,29.93,SSW,203,0.0,0.0,56,0.00,,,0.00,WUHU216HW,2013-06-17 13:30:00,
2013-06-17 08:35:00,81.8,62.9,29.93,WNW,293,0.0,0.0,53,0.00,,,0.00,WUHU216HW,2013-06-17 13:35:00,
2013-06-17 08:40:00,81.5,61.5,29.93,WSW,248,0.0,0.0,51,0.00,,,0.00,WUHU216HW,2013-06-17 13:40:00,
2013-06-17 08:45:00,80.6,61.8,29.93,West,270,0.0,0.0,53,0.00,,,0.00,WUHU216HW,2013-06-17 13:45:00,
2013-06-17 08:50:00,80.4,63.2,29.93,West,270,0.0,0.0,56,0.00,,,0.00,WUHU216HW,2013-06-17 13:50:00,
2013-06-17 08:55:00,80.2,60.9,29.93,WNW,293,0.0,0.0,52,0.00,,,0.00,WUHU216HW,2013-06-17 13:55:00,
2013-06-17 09:00:00,78.8,60.2,29.93,NW,315,0.0,0.0,53,0.00,,,0.00,WUHU216HW,2013-06-17 14:00:00,
2013-06-17 09:05:00,78.0,60.0,29.94,West,270,0.0,0.0,54,0.00,,,0.00,WUHU216HW,2013-06-17 14:05:00,
2013-06-17 09:10:00,77.7,60.2,29.93,WSW,248,0.0,0.0,55,0.00,,,0.00,WUHU216HW,2013-06-17 14:10:00,
2013-06-17 09:15:00,77.1,60.2,29.94,WNW,293,0.0,0.0,56,0.00,,,0.00,WUHU216HW,2013-06-17 14:15:00,
2013-06-17 09:20:00,77.0,60.0,29.93,West,270,0.0,0.0,56,0.00,,,0.00,WUHU216HW,2013-06-17 14:20:00,
2013-06-17 09:26:00,77.0,60.0,29.93,NW,315,0.0,0.0,56,0.00,,,0.00,WUHU216HW,2013-06-17 14:26:00,
2013-06-17 09:31:00,77.1,60.2,29.94,West,270,0.0,0.0,56,0.00,,,0.00,WUHU216HW,2013-06-17 14:31:00,
2013-06-17 09:35:00,77.1,59.7,29.93,NNW,338,0.0,0.0,55,0.00,,,0.00,WUHU216HW,2013-06-17 14:35:00,
2013-06-17 09:40:00,77.1,59.7,29.92,WNW,293,0.0,0.0,55,0.00,,,0.00,WUHU216HW,2013-06-17 14:40:00,
2013-06-17 09:45:00,77.0,59.0,29.92,WNW,293,0.0,0.0,54,0.00,,,0.00,WUHU216HW,2013-06-17 14:45:00,
2013-06-17 09:50:00,76.8,59.3,29.93,West,270,0.0,0.0,55,0.00,,,0.00,WUHU216HW,2013-06-17 14:50:00,
2013-06-17 09:55:00,76.8,59.3,29.93,NW,315,0.0,0.0,55,0.00,,,0.00,WUHU216HW,2013-06-17 14:55:00,
2013-06-17 10:00:00,76.8,58.8,29.93,West,270,0.0,0.0,54,0.00,,,0.00,WUHU216HW,2013-06-17 15:00:00,
2013-06-17 10:05:00,76.6,57.7,29.93,NW,315,0.0,0.0,52,0.00,,,0.00,WUHU216HW,2013-06-17 15:05:00,
2013-06-17 10:10:00,76.8,58.3,29.92,NW,315,0.0,0.0,53,0.00,,,0.00,WUHU216HW,2013-06-17 15:10:00,
2013-06-17 10:15:00,77.1,58.6,29.92,WSW,248,0.0,0.0,53,0.00,,,0.00,WUHU216HW,2013-06-17 15:15:00,
2013-06-17 10:20:00,77.5,58.5,29.92,WNW,293,0.0,0.0,52,0.00,,,0.00,WUHU216HW,2013-06-17 15:20:00,
2013-06-17 10:25:00,77.5,58.0,29.93,WNW,293,0.0,0.0,51,0.00,,,0.00,WUHU216HW,2013-06-17 15:25:00,
2013-06-17 10:30:00,77.7,57.6,29.93,West,270,0.0,0.0,50,0.00,,,0.00,WUHU216HW,2013-06-17 15:30:00,
2013-06-17 10:35:00,77.9,57.2,29.93,West,270,0.0,0.0,49,0.00,,,0.00,WUHU216HW,2013-06-17 15:35:00,
2013-06-17 10:40:00,77.9,57.8,29.93,WNW,293,0.0,0.0,50,0.00,,,0.00,WUHU216HW,2013-06-17 15:40:00,
2013-06-17 10:45:00,78.4,58.3,29.93,WNW,293,0.0,0.0,50,0.00,,,0.00,WUHU216HW,2013-06-17 15:45:00,
2013-06-17 10:50:00,78.6,58.9,29.93,WNW,293,0.0,0.0,51,0.00,,,0.00,WUHU216HW,2013-06-17 15:50:00,
2013-06-17 10:55:00,78.6,58.4,29.93,NW,315,0.0,0.0,50,0.00,,,0.00,WUHU216HW,2013-06-17 15:55:00,
2013-06-17 11:00:00,78.6,58.4,29.93,WNW,293,0.0,0.0,50,0.00,,,0.00,WUHU216HW,2013-06-17 16:00:00,
2013-06-17 11:05:00,78.9,58.8,29.93,West,270,0.0,0.0,50,0.00,,,0.00,WUHU216HW,2013-06-17 16:05:00,
2013-06-17 11:10:00,79.3,59.1,29.94,SSW,203,0.0,0.0,50,0.00,,,0.00,WUHU216HW,2013-06-17 16:10:00,
2013-06-17 11:15:00,79.3,58.5,29.94,NW,315,0.0,0.0,49,0.00,,,0.00,WUHU216HW,2013-06-17 16:15:00,
2013-06-17 11:21:00,79.3,57.9,29.94,WNW,293,0.0,0.0,48,0.00,,,0.00,WUHU216HW,2013-06-17 16:21:00,
2013-06-17 11:25:00,79.3,57.2,29.94,WSW,248,0.0,0.0,47,0.00,,,0.00,WUHU216HW,2013-06-17 16:25:00,
2013-06-17 11:30:00,79.5,58.6,29.94,West,270,0.0,0.0,49,0.00,,,0.00,WUHU216HW,2013-06-17 16:30:00,
2013-06-17 11:35:00,79.5,58.0,29.94,NW,315,0.0,0.0,48,0.00,,,0.00,WUHU216HW,2013-06-17 16:35:00,
2013-06-17 11:40:00,80.2,58.7,29.94,NW,315,0.0,0.0,48,0.00,,,0.00,WUHU216HW,2013-06-17 16:40:00,
2013-06-17 11:45:00,80.2,57.4,29.95,NW,315,0.0,0.0,46,0.00,,,0.00,WUHU216HW,2013-06-17 16:45:00,
2013-06-17 11:50:00,80.4,57.0,29.95,WNW,293,0.0,0.0,45,0.00,,,0.00,WUHU216HW,2013-06-17 16:50:00,
2013-06-17 11:55:00,80.4,57.6,29.95,West,270,0.0,0.0,46,0.00,,,0.00,WUHU216HW,2013-06-17 16:55:00,
2013-06-17 12:01:00,80.7,57.3,29.95,WNW,293,0.0,0.0,45,0.00,,,0.00,WUHU216HW,2013-06-17 17:01:00,
2013-06-17 12:06:00,80.7,57.3,29.95,WNW,293,0.0,0.0,45,0.00,,,0.00,WUHU216HW,2013-06-17 17:06:00,
2013-06-17 12:11:00,80.9,57.5,29.94,WNW,293,0.0,0.0,45,0.00,,,0.00,WUHU216HW,2013-06-17 17:11:00,
2013-06-17 12:16:00,80.9,58.1,29.95,West,270,0.0,0.0,46,0.00,,,0.00,WUHU216HW,2013-06-17 17:16:00,
2013-06-17 12:21:00,81.1,58.2,29.95,WNW,293,0.0,0.0,46,0.00,,,0.00,WUHU216HW,2013-06-17 17:21:00,
2013-06-17 12:26:00,81.3,57.2,29.94,WNW,293,0.0,0.0,44,0.00,,,0.00,WUHU216HW,2013-06-17 17:26:00,
2013-06-17 12:31:00,80.7,57.9,29.94,NNW,338,0.0,0.0,46,0.00,,,0.00,WUHU216HW,2013-06-17 17:31:00,
2013-06-17 12:36:00,80.7,57.9,29.94,NW,315,0.0,0.0,46,0.00,,,0.00,WUHU216HW,2013-06-17 17:36:00,
2013-06-17 12:41:00,80.7,57.3,29.94,WNW,293,0.0,0.0,46,0.00,,,0.00,WUHU216HW,2013-06-17 17:41:00,
2013-06-17 12:46:00,81.1,58.2,29.94,WSW,248,0.0,0.0,46,0.00,,,0.00,WUHU216HW,2013-06-17 17:46:00,
2013-06-17 12:51:00,81.6,58.1,29.94,WNW,293,0.0,0.0,45,0.00,,,0.00,WUHU216HW,2013-06-17 17:51:00,
2013-06-17 12:56:00,81.6,58.7,29.94,NNW,338,0.0,0.0,46,0.00,,,0.00,WUHU216HW,2013-06-17 17:56:00,
2013-06-17 13:01:00,82.2,57.4,29.94,WNW,293,0.0,0.0,43,0.00,,,0.00,WUHU216HW,2013-06-17 18:01:00,
2013-06-17 13:06:00,82.0,57.8,29.94,WNW,293,0.0,0.0,44,0.00,,,0.00,WUHU216HW,2013-06-17 18:06:00,
2013-06-17 13:11:00,81.6,57.5,29.94,WNW,293,0.0,0.0,44,0.00,,,0.00,WUHU216HW,2013-06-17 18:11:00,
2013-06-17 13:16:00,81.3,57.2,29.94,West,270,0.0,0.0,44,0.00,,,0.00,WUHU216HW,2013-06-17 18:16:00,
2013-06-17 13:21:00,82.0,57.2,29.94,West,270,0.0,0.0,43,0.00,,,0.00,WUHU216HW,2013-06-17 18:21:00,
2013-06-17 13:26:00,81.5,57.3,29.94,NW,315,0.0,0.0,44,0.00,,,0.00,WUHU216HW,2013-06-17 18:26:00,
2013-06-17 13:31:00,81.1,57.0,29.94,West,270,0.0,0.0,44,0.00,,,0.00,WUHU216HW,2013-06-17 18:31:00,
2013-06-17 13:36:00,81.3,57.2,29.94,West,270,0.0,0.0,44,0.00,,,0.00,WUHU216HW,2013-06-17 18:36:00,
2013-06-17 13:41:00,81.6,58.7,29.94,NW,315,0.0,0.0,46,0.00,,,0.00,WUHU216HW,2013-06-17 18:41:00,
2013-06-17 13:46:00,82.0,59.1,29.93,West,270,0.0,0.0,46,0.00,,,0.00,WUHU216HW,2013-06-17 18:46:00,
2013-06-17 13:51:00,81.3,57.2,29.93,West,270,0.0,0.0,44,0.00,,,0.00,WUHU216HW,2013-06-17 18:51:00,
2013-06-17 13:56:00,81.1,57.6,29.93,WNW,293,0.0,0.0,45,0.00,,,0.00,WUHU216HW,2013-06-17 18:56:00,
2013-06-17 14:01:00,81.3,57.8,29.93,West,270,0.0,0.0,45,0.00,,,0.00,WUHU216HW,2013-06-17 19:01:00,
2013-06-17 14:06:00,81.1,57.6,29.93,West,270,0.0,0.0,45,0.00,,,0.00,WUHU216HW,2013-06-17 19:06:00,
2013-06-17 14:11:00,80.7,56.1,29.93,NNW,338,0.0,0.0,43,0.00,,,0.00,WUHU216HW,2013-06-17 19:11:00,
2013-06-17 14:16:00,80.7,56.1,29.93,NW,315,0.0,0.0,43,0.00,,,0.00,WUHU216HW,2013-06-17 19:16:00,
2013-06-17 14:21:00,80.9,57.5,29.93,WNW,293,0.0,0.0,45,0.00,,,0.00,WUHU216HW,2013-06-17 19:21:00,
2013-06-17 14:26:00,81.1,57.6,29.93,NW,315,0.0,0.0,45,0.00,,,0.00,WUHU216HW,2013-06-17 19:26:00,
2013-06-17 14:31:00,81.3,57.2,29.93,WNW,293,0.0,0.0,44,0.00,,,0.00,WUHU216HW,2013-06-17 19:31:00,
2013-06-17 14:36:00,81.3,57.2,29.93,WNW,293,0.0,0.0,44,0.00,,,0.00,WUHU216HW,2013-06-17 19:36:00,
2013-06-17 14:41:00,81.5,56.1,29.93,West,270,0.0,0.0,42,0.00,,,0.00,WUHU216HW,2013-06-17 19:41:00,
2013-06-17 14:46:00,81.1,56.4,29.93,WNW,293,0.0,0.0,43,0.00,,,0.00,WUHU216HW,2013-06-17 19:46:00,
2013-06-17 14:51:00,81.3,56.0,29.93,NW,315,0.0,0.0,42,0.00,,,0.00,WUHU216HW,2013-06-17 19:51:00,
2013-06-17 14:56:00,82.0,57.8,29.93,NW,315,0.0,0.0,44,0.00,,,0.00,WUHU216HW,2013-06-17 19:56:00,
2013-06-17 15:01:00,82.4,57.5,29.93,NW,315,0.0,0.0,43,0.00,,,0.00,WUHU216HW,2013-06-17 20:01:00,
2013-06-17 15:06:00,82.7,57.9,29.93,WSW,248,0.0,0.0,43,0.00,,,0.00,WUHU216HW,2013-06-17 20:06:00,
2013-06-17 15:11:00,83.1,58.2,29.93,NW,315,0.0,0.0,43,0.00,,,0.00,WUHU216HW,2013-06-17 20:11:00,
2013-06-17 15:16:00,83.1,57.0,29.92,WNW,293,0.0,0.0,41,0.00,,,0.00,WUHU216HW,2013-06-17 20:16:00,
2013-06-17 15:21:00,82.7,56.6,29.92,NW,315,0.0,0.0,41,0.00,,,0.00,WUHU216HW,2013-06-17 20:21:00,
2013-06-17 15:26:00,82.5,56.5,29.92,NW,315,0.0,0.0,41,0.00,,,0.00,WUHU216HW,2013-06-17 20:26:00,
2013-06-17 15:31:00,81.6,55.7,29.92,WNW,293,0.0,0.0,41,0.00,,,0.00,WUHU216HW,2013-06-17 20:31:00,
2013-06-17 15:36:00,81.3,56.0,29.92,NW,315,0.0,0.0,42,0.00,,,0.00,WUHU216HW,2013-06-17 20:36:00,
2013-06-17 15:41:00,81.3,57.8,29.92,West,270,0.0,0.0,45,0.00,,,0.00,WUHU216HW,2013-06-17 20:41:00,
2013-06-17 15:46:00,81.6,57.7,29.92,NW,315,0.0,0.0,44,0.00,,,0.00,WUHU216HW,2013-06-17 20:46:00,
2013-06-17 15:51:00,81.6,57.2,29.92,NW,315,0.0,0.0,44,0.00,,,0.00,WUHU216HW,2013-06-17 20:51:00,
2013-06-17 15:56:00,81.5,56.7,29.92,NNW,338,0.0,0.0,43,0.00,,,0.00,WUHU216HW,2013-06-17 20:56:00,
2013-06-17 16:01:00,80.7,55.8,29.92,WNW,293,0.0,0.0,43,0.00,,,0.00,WUHU216HW,2013-06-17 21:01:00,
2013-06-17 16:06:00,80.0,56.1,29.92,WNW,293,0.0,0.0,44,0.00,,,0.00,WUHU216HW,2013-06-17 21:06:00,
2013-06-17 16:11:00,79.8,55.9,29.92,WNW,293,0.0,0.0,44,0.00,,,0.00,WUHU216HW,2013-06-17 21:11:00,
2013-06-17 16:16:00,79.5,55.6,29.92,NNE,23,0.0,0.0,44,0.00,,,0.00,WUHU216HW,2013-06-17 21:16:00,
2013-06-17 16:21:00,79.8,55.9,29.92,NNW,338,0.0,0.0,44,0.00,,,0.00,WUHU216HW,2013-06-17 21:21:00,
2013-06-17 16:26:00,79.3,55.4,29.92,NW,315,0.0,0.0,44,0.00,,,0.00,WUHU216HW,2013-06-17 21:26:00,
2013-06-17 16:31:00,78.6,55.4,29.92,NW,315,0.0,0.0,45,0.00,,,0.00,WUHU216HW,2013-06-17 21:31:00,
2013-06-17 16:36:00,79.3,56.6,29.92,West,270,0.0,0.0,46,0.00,,,0.00,WUHU216HW,2013-06-17 21:36:00,
2013-06-17 16:41:00,79.1,55.2,29.92,NW,315,0.0,0.0,44,0.00,,,0.00,WUHU216HW,2013-06-17 21:41:00,
2013-06-17 16:46:00,79.8,55.9,29.92,NW,315,0.0,0.0,44,0.00,,,0.00,WUHU216HW,2013-06-17 21:46:00,
2013-06-17 16:51:00,80.2,56.8,29.92,West,270,0.0,0.0,45,0.00,,,0.00,WUHU216HW,2013-06-17 21:51:00,
2013-06-17 16:56:00,80.7,57.9,29.92,NW,315,0.0,0.0,46,0.00,,,0.00,WUHU216HW,2013-06-17 21:56:00,
2013-06-17 17:01:00,80.9,56.3,29.91,NW,315,0.0,0.0,44,0.00,,,0.00,WUHU216HW,2013-06-17 22:01:00,
2013-06-17 17:06:00,81.1,57.0,29.91,NW,315,0.0,0.0,44,0.00,,,0.00,WUHU216HW,2013-06-17 22:06:00,
2013-06-17 17:11:00,80.9,56.3,29.91,WNW,293,0.0,0.0,43,0.00,,,0.00,WUHU216HW,2013-06-17 22:11:00,
2013-06-17 17:16:00,80.9,56.3,29.91,WNW,293,0.0,0.0,43,0.00,,,0.00,WUHU216HW,2013-06-17 22:16:00,
2013-06-17 17:21:00,81.1,57.6,29.91,NW,315,0.0,0.0,45,0.00,,,0.00,WUHU216HW,2013-06-17 22:21:00,
2013-06-17 17:26:00,81.1,57.0,29.91,NW,315,0.0,0.0,44,0.00,,,0.00,WUHU216HW,2013-06-17 22:26:00,
2013-06-17 17:31:00,80.6,57.2,29.91,West,270,0.0,0.0,45,0.00,,,0.00,WUHU216HW,2013-06-17 22:31:00,
2013-06-17 17:36:00,80.9,56.9,29.91,West,270,0.0,0.0,44,0.00,,,0.00,WUHU216HW,2013-06-17 22:36:00,
2013-06-17 17:41:00,81.1,56.4,29.91,WNW,293,0.0,0.0,43,0.00,,,0.00,WUHU216HW,2013-06-17 22:41:00,
2013-06-17 17:46:00,81.3,57.2,29.91,NNW,338,0.0,0.0,44,0.00,,,0.00,WUHU216HW,2013-06-17 22:46:00,
2013-06-17 17:51:00,81.3,56.6,29.91,North,0,0.0,0.0,43,0.00,,,0.00,WUHU216HW,2013-06-17 22:51:00,
2013-06-17 17:56:00,81.1,56.4,29.91,NW,315,0.0,0.0,43,0.00,,,0.00,WUHU216HW,2013-06-17 22:56:00,
2013-06-17 18:01:00,81.1,57.6,29.90,SW,225,0.0,0.0,45,0.00,,,0.00,WUHU216HW,2013-06-17 23:01:00,
2013-06-17 18:06:00,81.1,56.4,29.90,NW,315,0.0,0.0,43,0.00,,,0.00,WUHU216HW,2013-06-17 23:06:00,
2013-06-17 18:11:00,81.1,57.6,29.90,NW,315,0.0,0.0,45,0.00,,,0.00,WUHU216HW,2013-06-17 23:11:00,
2013-06-17 18:16:00,81.3,57.2,29.90,NW,315,0.0,0.0,44,0.00,,,0.00,WUHU216HW,2013-06-17 23:16:00,
2013-06-17 18:21:00,81.6,57.5,29.90,NW,315,0.0,0.0,44,0.00,,,0.00,WUHU216HW,2013-06-17 23:21:00,
2013-06-17 18:26:00,83.6,58.7,29.90,NNW,338,0.0,0.0,43,0.00,,,0.00,WUHU216HW,2013-06-17 23:26:00,
2013-06-17 18:31:00,86.5,59.4,29.90,NNW,338,0.0,0.0,40,0.00,,,0.00,WUHU216HW,2013-06-17 23:31:00,
2013-06-17 18:36:00,87.6,60.4,29.90,NW,315,0.0,0.0,40,0.00,,,0.00,WUHU216HW,2013-06-17 23:36:00,
2013-06-17 18:41:00,87.9,59.1,29.90,WNW,293,0.0,0.0,38,0.00,,,0.00,WUHU216HW,2013-06-17 23:41:00,
2013-06-17 18:46:00,88.5,58.7,29.90,NW,315,0.0,0.0,37,0.00,,,0.00,WUHU216HW,2013-06-17 23:46:00,
2013-06-17 18:51:00,88.5,58.7,29.90,NW,315,0.0,0.0,37,0.00,,,0.00,WUHU216HW,2013-06-17 23:51:00,
2013-06-17 18:56:00,87.9,58.3,29.91,North,0,0.0,0.0,37,0.00,,,0.00,WUHU216HW,2013-06-17 23:56:00,
2013-06-17 19:01:00,84.7,59.1,29.91,ENE,68,0.0,0.0,42,0.00,,,0.00,WUHU216HW,2013-06-18 00:01:00,
2013-06-17 19:06:00,83.4,59.2,29.91,West,270,0.0,0.0,44,0.00,,,0.00,WUHU216HW,2013-06-18 00:06:00,
2013-06-17 19:11:00,84.2,59.2,29.91,NE,45,0.0,0.0,43,0.00,,,0.00,WUHU216HW,2013-06-18 00:11:00,
2013-06-17 19:16:00,86.5,60.7,29.91,NE,45,0.0,0.0,42,0.00,,,0.00,WUHU216HW,2013-06-18 00:16:00,
2013-06-17 19:21:00,87.0,60.6,29.91,NE,45,0.0,0.0,41,0.00,,,0.00,WUHU216HW,2013-06-18 00:21:00,
2013-06-17 19:26:00,86.1,60.4,29.92,ENE,68,0.0,0.0,42,0.00,,,0.00,WUHU216HW,2013-06-18 00:26:00,
2013-06-17 19:31:00,85.8,60.7,29.92,NE,45,0.0,0.0,43,0.00,,,0.00,WUHU216HW,2013-06-18 00:31:00,
2013-06-17 19:36:00,86.7,61.5,29.92,NE,45,0.0,0.0,43,0.00,,,0.00,WUHU216HW,2013-06-18 00:36:00,
2013-06-17 19:41:00,87.0,61.2,29.91,West,270,0.0,0.0,42,0.00,,,0.00,WUHU216HW,2013-06-18 00:41:00,
2013-06-17 19:46:00,85.8,60.0,29.92,NNE,23,0.0,0.0,42,0.00,,,0.00,WUHU216HW,2013-06-18 00:46:00,
2013-06-17 19:51:00,82.5,58.9,29.92,ENE,68,0.0,0.0,45,0.00,,,0.00,WUHU216HW,2013-06-18 00:51:00,
2013-06-17 19:56:00,81.6,58.7,29.92,NW,315,0.0,0.0,46,0.00,,,0.00,WUHU216HW,2013-06-18 00:56:00,
2013-06-17 20:01:00,79.8,58.3,29.92,NNW,338,0.0,0.0,48,0.00,,,0.00,WUHU216HW,2013-06-18 01:01:00,
2013-06-17 20:06:00,79.3,58.5,29.92,NE,45,0.0,0.0,49,0.00,,,0.00,WUHU216HW,2013-06-18 01:06:00,
2013-06-17 20:11:00,78.6,57.8,29.92,ENE,68,0.0,0.0,49,0.00,,,0.00,WUHU216HW,2013-06-18 01:11:00,
2013-06-17 20:16:00,80.2,59.3,29.92,NE,45,0.0,0.0,49,0.00,,,0.00,WUHU216HW,2013-06-18 01:16:00,
2013-06-17 20:21:00,80.6,59.6,29.92,East,90,0.0,0.0,49,0.00,,,0.00,WUHU216HW,2013-06-18 01:21:00,
2013-06-17 20:26:00,80.6,59.6,29.92,North,0,0.0,0.0,49,0.00,,,0.00,WUHU216HW,2013-06-18 01:26:00,
2013-06-17 20:31:00,79.8,59.0,29.92,NNW,338,0.0,0.0,49,0.00,,,0.00,WUHU216HW,2013-06-18 01:31:00,
2013-06-17 20:36:00,78.4,58.8,29.92,ENE,68,0.0,0.0,51,0.00,,,0.00,WUHU216HW,2013-06-18 01:36:00,
2013-06-17 20:41:00,76.2,57.3,29.92,WSW,248,0.0,0.0,52,0.00,,,0.00,WUHU216HW,2013-06-18 01:41:00,
2013-06-17 20:46:00,73.9,56.1,29.92,NW,315,0.0,0.0,54,0.00,,,0.00,WUHU216HW,2013-06-18 01:46:00,
2013-06-17 20:51:00,72.6,55.9,29.92,NW,315,0.0,0.0,56,0.00,,,0.00,WUHU216HW,2013-06-18 01:51:00,
2013-06-17 20:56:00,71.7,55.6,29.92,NW,315,0.0,0.0,57,0.00,,,0.00,WUHU216HW,2013-06-18 01:56:00,
2013-06-17 21:01:00,70.7,55.7,29.93,East,90,0.0,0.0,59,0.00,,,0.00,WUHU216HW,2013-06-18 02:01:00,
2013-06-17 21:06:00,69.9,55.0,29.93,NNW,338,0.0,0.0,59,0.00,,,0.00,WUHU216HW,2013-06-18 02:06:00,
2013-06-17 21:11:00,69.4,55.0,29.93,NE,45,0.0,0.0,60,0.00,,,0.00,WUHU216HW,2013-06-18 02:11:00,
2013-06-17 21:16:00,68.9,55.3,29.93,NE,45,0.0,0.0,62,0.00,,,0.00,WUHU216HW,2013-06-18 02:16:00,
2013-06-17 21:21:00,68.5,54.9,29.94,North,0,0.0,0.0,62,0.00,,,0.00,WUHU216HW,2013-06-18 02:21:00,
2013-06-17 21:26:00,68.1,55.0,29.94,East,90,0.0,0.0,63,0.00,,,0.00,WUHU216HW,2013-06-18 02:26:00,
2013-06-17 21:31:00,67.8,55.1,29.94,East,90,0.0,0.0,64,0.00,,,0.00,WUHU216HW,2013-06-18 02:31:00,
2013-06-17 21:36:00,67.6,54.9,29.95,NNW,338,0.0,0.0,64,0.00,,,0.00,WUHU216HW,2013-06-18 02:36:00,
2013-06-17 21:41:00,67.2,54.6,29.95,NNW,338,0.0,0.0,64,0.00,,,0.00,WUHU216HW,2013-06-18 02:41:00,
2013-06-17 21:46:00,66.7,54.5,29.95,NNW,338,0.0,0.0,65,0.00,,,0.00,WUHU216HW,2013-06-18 02:46:00,
2013-06-17 21:51:00,66.3,54.6,29.95,NNW,338,0.0,0.0,66,0.00,,,0.00,WUHU216HW,2013-06-18 02:51:00,
2013-06-17 21:56:00,66.2,54.4,29.96,NNW,338,0.0,0.0,66,0.00,,,0.00,WUHU216HW,2013-06-18 02:56:00,
2013-06-17 22:01:00,65.8,54.5,29.96,NNW,338,0.0,0.0,67,0.00,,,0.00,WUHU216HW,2013-06-18 03:01:00,
2013-06-17 22:06:00,65.6,54.3,29.96,NNW,338,0.0,0.0,67,0.00,,,0.00,WUHU216HW,2013-06-18 03:06:00,
2013-06-17 22:11:00,65.4,54.6,29.97,NNW,338,0.0,0.0,68,0.00,,,0.00,WUHU216HW,2013-06-18 03:11:00,
2013-06-17 22:16:00,65.1,54.7,29.97,NNW,338,0.0,0.0,69,0.00,,,0.00,WUHU216HW,2013-06-18 03:16:00,
2013-06-17 22:21:00,64.9,54.5,29.97,NNW,338,0.0,0.0,69,0.00,,,0.00,WUHU216HW,2013-06-18 03:21:00,
2013-06-17 22:26:00,64.7,54.3,29.97,NNW,338,0.0,0.0,69,0.00,,,0.00,WUHU216HW,2013-06-18 03:26:00,
2013-06-17 22:31:00,64.2,53.8,29.97,NNW,338,0.0,0.0,69,0.00,,,0.00,WUHU216HW,2013-06-18 03:31:00,
2013-06-17 22:36:00,64.0,53.7,29.97,NNW,338,0.0,0.0,69,0.00,,,0.00,WUHU216HW,2013-06-18 03:36:00,
2013-06-17 22:41:00,63.6,53.7,29.97,NNW,338,0.0,0.0,70,0.00,,,0.00,WUHU216HW,2013-06-18 03:41:00,
2013-06-17 22:46:00,63.6,54.5,29.97,ENE,68,0.0,0.0,72,0.00,,,0.00,WUHU216HW,2013-06-18 03:46:00,
2013-06-17 22:51:00,64.0,55.2,29.97,NE,45,0.0,0.0,73,0.00,,,0.00,WUHU216HW,2013-06-18 03:51:00,
2013-06-17 22:56:00,64.2,55.4,29.97,ENE,68,0.0,0.0,73,0.00,,,0.00,WUHU216HW,2013-06-18 03:56:00,
2013-06-17 23:01:00,64.7,55.9,29.97,NW,315,0.0,0.0,73,0.00,,,0.00,WUHU216HW,2013-06-18 04:01:00,
2013-06-17 23:06:00,65.1,56.2,29.97,NE,45,0.0,0.0,73,0.00,,,0.00,WUHU216HW,2013-06-18 04:06:00,
2013-06-17 23:11:00,65.3,56.4,29.98,East,90,0.0,0.0,73,0.00,,,0.00,WUHU216HW,2013-06-18 04:11:00,
2013-06-17 23:16:00,65.4,56.2,29.98,NNE,23,0.0,0.0,72,0.00,,,0.00,WUHU216HW,2013-06-18 04:16:00,
2013-06-17 23:21:00,65.4,56.5,29.98,NE,45,0.0,0.0,73,0.00,,,0.00,WUHU216HW,2013-06-18 04:21:00,
2013-06-17 23:26:00,65.4,56.2,29.98,ENE,68,0.0,0.0,72,0.00,,,0.00,WUHU216HW,2013-06-18 04:26:00,
2013-06-17 23:31:00,65.3,56.4,29.98,NE,45,0.0,0.0,73,0.00,,,0.00,WUHU216HW,2013-06-18 04:31:00,
2013-06-17 23:36:00,65.3,56.4,29.98,ENE,68,0.0,0.0,73,0.00,,,0.00,WUHU216HW,2013-06-18 04:36:00,
2013-06-17 23:41:00,65.4,56.5,29.98,ENE,68,0.0,0.0,73,0.00,,,0.00,WUHU216HW,2013-06-18 04:41:00,
2013-06-17 23:46:00,65.4,56.5,29.98,North,0,0.0,0.0,73,0.00,,,0.00,WUHU216HW,2013-06-18 04:46:00,
2013-06-17 23:51:00,65.6,56.7,29.98,ENE,68,0.0,0.0,73,0.00,,,0.00,WUHU216HW,2013-06-18 04:51:00,
2013-06-17 23:56:00,65.8,56.9,29.98,NNE,23,0.0,0.0,73,0.00,,,0.00,WUHU216HW,2013-06-18 04:56:00,